STARLINK-5086, 54856

Orbit data source: Space-Track

STARLINK-5086, 54856 is a payload satellite owned by SpaceX/Seattle (US) in LEO that was launched on Wed, 28 Dec 2022 UTC via an FALCON 9 launch vehicle from the Air Force Eastern Test Range (AFETR). Payload-class satellites include a variety of spacecraft equipped with specific instruments for various scientific and technological missions. These include communications satellites like Starlink; space stations such as the ISS; scientific satellites like the Hubble; Earth observation satellites from companies like Planet Labs, Umbra, and HawkEye 360; GPS; miniature CubeSats for education and research; and military/defense satellites.

Loading next visibility...
Identifier
54856, 2022-177AN
Orbit
LEO
Country
Flag of USUS
Related business
Manufacturer
SpaceX/Seattle
Mission
Operational Commercial Communications
Bus & Motor
STARLINK, Unknown motor
Mass
305 kg wet, ~290 kg dry
Launch date (UTC)
2022-12-28 (3 years ago)
Launch vehicle
FALCON 9
Launch site
Air Force Eastern Test Range (AFETR)
Object type
Payload
Rocket body
Debris
Shape & HBR
Box + 1 Pan, 10.1 m
Radar Cross Section
13.562 m², Large (>1 m²)

Expand to show TLE details & history
Last TLE update: 3 days ago

TLE from 3 days ago
0 STARLINK-5086
1 54856U 22177AN  26170.72422319  .00000144  00000-0  14762-4 0  9996
2 54856  43.0033 265.4992 0002156 279.7046  80.3562 15.27577546192699
Epoch: 2026-06-19T17:22Z
TLE epoch observation values (Epoch: 2026-06-19T17:22:52.883Z)
Latitude
-0.00003°
Longitude
96.82973°
Altitude
482.585 km
Speed
7.626 km/s
True Right ascension
17h 41m 59s
True Declination
0° 00' 00"
Sunlit
Object was in full shadow at epoch
Visualization orbit readout
Latitude
Unknown
Longitude
Unknown
Altitude
Unknown
Speed
Unknown
Apparent Right ascension
Unknown
Apparent Declination
Unknown
Sunlit
N/A
Visualization observer readout
Local Sidereal Time
21:34:42
Azimuth
Unknown
Elevation
Unknown
Doppler factor
Unknown
Orbital elements
Apogee altitude
486.481 km
Perigee altitude
483.521 km
Semi-major axis
6,863.138 km
Eccentricity
0.00022
Inclination
43.0033°
RAAN
265.4992°
Arg. of periapsis
279.7046°
True anomaly
80.38056°
Mean anomaly
80.3562°
Eccentric anomaly
80.36838°
Mean motion
3.81732 °/min
Orbital period
94.31 mins
BSTAR
0.000014762
Loading maneuver chart data...
Computing Atmospheric mass density...
Loading historical data...
Loading historical data...
Loading historical data...
Loading historical data...
Loading historical data...
Loading historical data...
Loading historical data...

Documentation

Showing up to 5 results
|